Regional Weather Roundup
Issued by NWS

Home | Current Version | Previous Version | Graphics & Text | Print | Product List | Glossary Off
Versions: 1 2 3 4 5 6 7 8 9 10 11 12 13 14 15 16 17 18 19 20 21 22 23 24 25 26 27 28 29 30 31 32 33 34 35 36 37 38 39 40 41 42 43 44 45 46 47 48 49 50

000
ASUS43 KFSD 282002
RWRSD

WEATHER ROUNDUP FOR SOUTH DAKOTA
NATIONAL WEATHER SERVICE SIOUX FALLS SD
300 PM CDT WED SEP 28 2016

NOTE: "FAIR" INDICATES FEW OR NO CLOUDS BELOW 12,000 FEET WITH NO
SIGNIFICANT WEATHER AND/OR OBSTRUCTIONS TO VISIBILITY.


SDZ001>005-009-010-012>017-282100-
NORTHWEST AND NORTH CENTRAL SOUTH DAKOTA

CITY           SKY/WX    TMP DP  RH WIND       PRES   REMARKS
BUFFALO          N/A     80  49  33 E9        30.19S
MOBRIDGE       SUNNY     70  39  32 VRB3      30.26S
$$

SDZ012>016-024>037-041>051-057-063-072>074-282100-
SOUTHWEST AND SOUTH CENTRAL SOUTH DAKOTA

CITY           SKY/WX    TMP DP  RH WIND       PRES   REMARKS
RAPID CTY ARPT SUNNY     78  47  33 E7G16     30.25F
PIERRE         SUNNY     70  36  28 MISG      30.25F
CUSTER         SUNNY     73  38  27 MISG      30.36F
ELLSWORTH AFB  SUNNY     77  46  33 E8        30.26S
PHILIP         SUNNY     75  40  28 E10G17    30.24F
PINE RIDGE     SUNNY     81  44  27 VRB5      30.24F
WINNER         FAIR      71  37  28 NE9       30.26F
$$

SDZ004>011-016>023-039-040-282100-
NORTHEAST SOUTH DAKOTA

CITY           SKY/WX    TMP DP  RH WIND       PRES   REMARKS
ABERDEEN       SUNNY     64  43  46 NE5       30.29S
WATERTOWN      SUNNY     62  45  53 NE8       30.27S
SISSETON         N/A     58  46  64 NE8       30.30R
$$

SDZ017-020-022-023-036>040-048>070-282100-
SOUTHEAST SOUTH DAKOTA

CITY           SKY/WX    TMP DP  RH WIND       PRES   REMARKS
SIOUX FALLS    MOSUNNY   64  45  49 VRB6G17   30.25S
HURON          SUNNY     65  44  46 NE7       30.27S
CHAMBERLAIN    SUNNY     68  46  45 E5        30.27S
MITCHELL       SUNNY     65  44  46 N7        30.27F
YANKTON        SUNNY     64  45  48 N8G17     30.23S
$$

ABBREVIATIONS USED IN REMARKS
   TC - TEMPERATURE IN CELSIUS
  WCI - WIND CHILL INDEX
   HX - HEAT INDEX
  VSB - VISIBILITY





USA.gov is the U.S. government's official web portal to all federal, state and local government web resources and services.